| time (UTC) | temp F | wind direction | speed knots | gust knots | rain 1hr in | rain 24hr in | rain mn in | humidity % | barometer mb |
| 20260906124531 | 71 | 86 | 0.0 | 1.7 | 0.00 | 0.00 | 0.00 | 100 | 991.9 |
| 20260906123027 | 71 | 83 | 0.0 | 2.6 | 0.00 | 0.00 | 0.00 | 100 | 991.6 |
| 20260906121523 | 70 | 15 | 0.0 | 0.0 | 0.00 | 0.00 | 0.00 | 100 | 991.5 |
| 20260906120019 | 70 | 15 | 0.0 | 2.6 | 0.00 | 0.00 | 0.00 | 100 | 991.4 |
| 20260906114514 | 70 | 19 | 0.9 | 2.6 | 0.00 | 0.00 | 0.00 | 100 | 991.2 |
| 20260906113010 | 70 | 19 | 0.0 | 0.0 | 0.00 | 0.00 | 0.00 | 100 | 990.6 |
| 20260906111506 | 70 | 19 | 0.0 | 0.0 | 0.00 | 0.00 | 0.00 | 100 | 990.5 |
| 20260906110001 | 70 | 19 | 0.0 | 0.0 | 0.00 | 0.00 | 0.00 | 100 | 990.1 |
| 20260906104557 | 70 | 19 | 0.0 | 0.0 | 0.00 | 0.00 | 0.00 | 100 | 990.3 |
| 20260906103053 | 70 | 19 | 0.0 | 2.6 | 0.00 | 0.00 | 0.00 | 100 | 990.5 |
| 20260906101553 | 70 | 20 | 0.9 | 2.6 | 0.00 | 0.00 | 0.00 | 100 | 990.2 |
| 20260906100043 | 70 | 22 | 0.0 | 0.0 | 0.00 | 0.00 | 0.00 | 100 | 989.9 |
| 20260906094539 | 70 | 22 | 0.0 | 1.7 | 0.00 | 0.00 | 0.00 | 100 | 989.8 |
| 20260906093046 | 70 | 19 | 0.0 | 1.7 | 0.00 | 0.00 | 0.00 | 100 | 989.8 |
| 20260906091530 | 70 | 14 | 0.0 | 0.0 | 0.00 | 0.00 | 0.00 | 100 | 990.0 |
| 20260906090026 | 69 | 14 | 0.0 | 0.0 | 0.00 | 0.00 | 0.00 | 100 | 990.0 |
| 20260906084522 | 69 | 14 | 0.0 | 0.9 | 0.00 | 0.00 | 0.00 | 100 | 990.0 |
| 20260906083022 | 69 | 76 | 0.0 | 2.6 | 0.00 | 0.00 | 0.00 | 100 | 990.2 |
| 20260906081516 | 69 | 84 | 0.0 | 0.9 | 0.00 | 0.00 | 0.00 | 100 | 990.1 |
| 20260906080009 | 69 | 84 | 0.0 | 0.0 | 0.00 | 0.00 | 0.00 | 100 | 990.0 |
| 20260906074505 | 69 | 84 | 0.0 | 0.0 | 0.00 | 0.00 | 0.00 | 100 | 990.0 |
| 20260906073104 | 70 | 84 | 0.0 | 0.9 | 0.00 | 0.00 | 0.00 | 100 | 990.1 |
| 20260906071556 | 70 | 84 | 0.0 | 0.9 | 0.00 | 0.00 | 0.00 | 100 | 990.1 |
| 20260906070051 | 71 | 84 | 0.0 | 1.7 | 0.00 | 0.00 | 0.00 | 100 | 990.4 |
| 20260906064547 | 71 | 82 | 0.9 | 3.5 | 0.00 | 0.00 | 0.00 | 100 | 990.5 |
| 20260906063043 | 71 | 81 | 0.9 | 7.0 | 0.00 | 0.00 | 0.00 | 100 | 990.5 |
| 20260906061639 | 71 | 79 | 0.9 | 6.1 | 0.00 | 0.00 | 0.00 | 100 | 990.5 |
| 20260906060037 | 72 | 81 | 0.9 | 4.3 | 0.00 | 0.00 | 0.00 | 100 | 990.3 |
| 20260906054530 | 72 | 68 | 2.6 | 7.0 | 0.00 | 0.00 | 0.00 | 100 | 990.2 |
| 20260906053026 | 72 | 78 | 2.6 | 6.1 | 0.00 | 0.00 | 0.00 | 100 | 990.0 |
| 20260906051521 | 73 | 78 | 1.7 | 4.3 | 0.00 | 0.00 | 0.00 | 100 | 989.8 |
| 20260906050017 | 73 | 76 | 1.7 | 3.5 | 0.00 | 0.00 | 0.00 | 100 | 989.7 |
| 20260906044513 | 74 | 84 | 2.6 | 5.2 | 0.00 | 0.00 | 0.00 | 100 | 989.5 |
| 20260906043010 | 74 | 80 | 0.9 | 3.5 | 0.00 | 0.00 | 0.00 | 100 | 989.4 |
| 20260906041510 | 75 | 76 | 1.7 | 4.3 | 0.00 | 0.00 | 0.00 | 100 | 989.2 |
| 20260906040100 | 75 | 78 | 2.6 | 4.3 | 0.00 | 0.00 | 0.00 | 100 | 989.0 |
| 20260906034555 | 76 | 82 | 1.7 | 3.5 | 0.00 | 0.00 | 0.00 | 100 | 989.1 |
| 20260906033054 | 76 | 85 | 1.7 | 5.2 | 0.00 | 0.00 | 0.00 | 100 | 989.2 |
| 20260906031547 | 76 | 80 | 0.0 | 2.6 | 0.00 | 0.00 | 0.00 | 100 | 989.0 |
| 20260906030045 | 77 | 81 | 1.7 | 4.3 | 0.00 | 0.00 | 0.00 | 100 | 988.9 |
| 20260906024538 | 78 | 57 | 0.9 | 3.5 | 0.00 | 0.00 | 0.00 | 100 | 988.9 |
| 20260906023039 | 79 | 68 | 1.7 | 3.5 | 0.00 | 0.00 | 0.00 | 100 | 988.6 |
| 20260906021529 | 80 | 57 | 0.9 | 2.6 | 0.00 | 0.00 | 0.00 | 100 | 988.4 |
| 20260906020024 | 80 | 80 | 0.9 | 3.5 | 0.00 | 0.00 | 0.00 | 100 | 988.4 |
| 20260906014524 | 81 | 74 | 1.7 | 3.5 | 0.00 | 0.00 | 0.00 | 100 | 988.1 |
| 20260906013016 | 82 | 42 | 0.9 | 3.5 | 0.00 | 0.00 | 0.00 | 100 | 987.8 |
| 20260906011511 | 83 | 65 | 1.7 | 2.6 | 0.00 | 0.00 | 0.00 | 100 | 987.5 |
| 20260906010008 | 84 | 65 | 0.9 | 3.5 | 0.00 | 0.00 | 0.00 | 100 | 987.4 |
| 20260906004502 | 85 | 41 | 1.7 | 3.5 | 0.00 | 0.00 | 0.00 | 100 | 987.2 |
| 20260906003058 | 86 | 355 | 0.0 | 2.6 | 0.00 | 0.00 | 0.00 | 100 | 987.1 |
| 20260906001600 | 87 | 355 | 0.9 | 2.6 | 0.00 | 0.00 | 0.00 | 100 | 987.0 |
| 20260906000050 | 88 | 355 | 1.7 | 2.6 | 0.00 | 0.00 | 0.00 | 100 | 987.0 |
| 20260905234545 | 88 | 355 | 0.0 | 1.7 | 0.00 | 0.00 | 0.00 | 100 | 986.8 |
| 20260905233102 | 88 | 355 | 0.9 | 1.7 | 0.00 | 0.00 | 0.00 | 100 | 987.0 |
| 20260905231549 | 88 | 355 | 1.7 | 3.5 | 0.00 | 0.00 | 0.00 | 100 | 986.9 |
| 20260905230032 | 89 | 355 | 1.7 | 3.5 | 0.00 | 0.00 | 0.00 | 100 | 986.8 |
| 20260905224528 | 90 | 351 | 0.9 | 4.3 | 0.00 | 0.00 | 0.00 | 100 | 986.6 |
| 20260905223023 | 90 | 360 | 1.7 | 3.5 | 0.00 | 0.00 | 0.00 | 23 | 986.6 |
| 20260905221531 | 91 | 18 | 0.9 | 4.3 | 0.00 | 0.00 | 0.00 | 21 | 986.7 |
| 20260905220014 | 91 | 5 | 0.0 | 4.3 | 0.00 | 0.00 | 0.00 | 28 | 986.7 |
| 20260905214511 | 91 | 355 | 1.7 | 4.3 | 0.00 | 0.00 | 0.00 | 39 | 986.6 |
| 20260905213005 | 92 | 39 | 0.9 | 2.6 | 0.00 | 0.00 | 0.00 | 39 | 986.5 |
| 20260905211501 | 92 | 355 | 0.0 | 4.3 | 0.00 | 0.00 | 0.00 | 50 | 986.5 |
| 20260905210057 | 92 | 355 | 6.1 | 9.6 | 0.00 | 0.00 | 0.00 | 58 | 986.6 |
| 20260905204553 | 92 | 355 | 3.5 | 7.0 | 0.00 | 0.00 | 0.00 | 58 | 986.8 |
| 20260905203052 | 93 | 360 | 3.5 | 9.6 | 0.00 | 0.00 | 0.00 | 60 | 986.8 |
| 20260905201544 | 93 | 326 | 3.5 | 7.0 | 0.00 | 0.00 | 0.00 | 60 | 986.8 |
| 20260905200043 | 94 | 355 | 3.5 | 7.0 | 0.00 | 0.00 | 0.00 | 59 | 986.8 |
| 20260905194535 | 94 | 347 | 3.5 | 7.0 | 0.00 | 0.00 | 0.00 | 60 | 986.8 |
| 20260905193031 | 94 | 360 | 5.2 | 8.7 | 0.00 | 0.00 | 0.00 | 59 | 987.0 |
| 20260905191526 | 94 | 351 | 4.3 | 8.7 | 0.00 | 0.00 | 0.00 | 60 | 987.2 |
| 20260905190024 | 93 | 355 | 3.5 | 7.0 | 0.00 | 0.00 | 0.00 | 60 | 987.2 |
| 20260905184521 | 93 | 9 | 4.3 | 7.8 | 0.00 | 0.00 | 0.00 | 59 | 987.4 |
| 20260905183013 | 94 | 355 | 6.1 | 10.4 | 0.00 | 0.00 | 0.00 | 59 | 987.5 |
| 20260905181508 | 93 | 360 | 4.3 | 11.3 | 0.00 | 0.00 | 0.00 | 59 | 987.5 |
| 20260905180004 | 94 | 351 | 4.3 | 8.7 | 0.00 | 0.00 | 0.00 | 60 | 987.5 |
| 20260905174601 | 93 | 298 | 4.3 | 10.4 | 0.00 | 0.00 | 0.00 | 59 | 987.7 |
| 20260905173057 | 93 | 5 | 5.2 | 7.8 | 0.00 | 0.00 | 0.00 | 60 | 987.6 |
| 20260905171553 | 93 | 360 | 3.5 | 7.8 | 0.00 | 0.00 | 0.00 | 59 | 987.8 |
| 20260905170047 | 93 | 337 | 4.3 | 7.0 | 0.00 | 0.00 | 0.00 | 58 | 987.9 |
| 20260905164542 | 92 | 322 | 5.2 | 7.8 | 0.00 | 0.00 | 0.00 | 59 | 988.0 |
| 20260905163038 | 92 | 338 | 4.3 | 7.0 | 0.00 | 0.00 | 0.00 | 59 | 988.3 |
| 20260905161533 | 91 | 318 | 1.7 | 5.2 | 0.00 | 0.00 | 0.00 | 59 | 988.3 |
| 20260905160030 | 91 | 355 | 0.9 | 3.5 | 0.00 | 0.00 | 0.00 | 57 | 988.3 |
| 20260905154524 | 90 | 355 | 0.9 | 4.3 | 0.00 | 0.00 | 0.00 | 54 | 988.3 |
| 20260905153020 | 89 | 332 | 0.9 | 3.5 | 0.00 | 0.00 | 0.00 | 54 | 988.4 |
| 20260905151516 | 89 | 165 | 0.0 | 0.0 | 0.00 | 0.00 | 0.00 | 4 | 988.4 |
| 20260905150011 | 88 | 165 | 0.0 | 0.0 | 0.00 | 0.00 | 0.00 | 100 | 988.2 |
| 20260905144507 | 86 | 165 | 0.0 | 0.0 | 0.00 | 0.00 | 0.00 | 100 | 988.0 |
| 20260905143003 | 84 | 165 | 0.0 | 0.0 | 0.00 | 0.00 | 0.00 | 100 | 987.9 |
| 20260905141623 | 82 | 165 | 0.0 | 1.7 | 0.00 | 0.00 | 0.00 | 100 | 987.8 |
| 20260905140055 | 80 | 163 | 0.0 | 1.7 | 0.00 | 0.00 | 0.00 | 100 | 987.9 |
| 20260905134551 | 78 | 163 | 0.0 | 0.9 | 0.00 | 0.00 | 0.00 | 100 | 988.2 |
| 20260905133045 | 77 | 163 | 0.0 | 1.7 | 0.00 | 0.00 | 0.00 | 100 | 988.0 |
| 20260905131556 | 76 | 163 | 0.0 | 0.0 | 0.00 | 0.00 | 0.00 | 100 | 987.9 |
| 20260905130038 | 75 | 163 | 0.0 | 0.0 | 0.00 | 0.00 | 0.00 | 100 | 987.9 |